星链-2615 (STARLINK-2615 )

导读

STARLINK-2615是美国太空探索技术公司星链计划的卫星,于2021年5月26日发射。星链计划旨在构建全球卫星互联网,为全球提供高速互联网服务。该卫星加入近地轨道卫星星座,推动了星链组网进程,也引发了近地轨道空间资源利用与天文观测干扰等相关讨论。

基本信息
目录编号:
48678
目录名称:
STARLINK-2615
国际标识:
2021-044AS
轨道中心:
EARTH
卫星名称:
星链-2615
卫星全名:
星链-2615 (STARLINK-2615 )
卫星状态:
在轨 (已飞行1927 天)
发射日期:
2021-05-26 UTC
国别 :
美国 (US)
星等 :
--
轨道信息
数据来源 国际轨道数据
星历时间: 2026-09-02T01:54:39+0800
2天前
查看轨道信息
半长轴: 6848.883km
偏心率: 0.0001115
轨道倾角: 53.159°
近地点辐角 68.691°
升交点赤经 4.489°
平近点角 291.421°
近地点: 469.982km
远地点: 471.51km
周期: 94.013分钟
每日圈数: 15.316983
详细信息
固有亮度:
5
最大亮度:
2.5
卫星平台:
Starlink v1.5
覆盖范围:
全球
运营商:
太空探索技术公司
运营商所在国:
美国
制造商(研发单位):
太空探索技术公司
制造商所在国:
美国
使用方式:
暂无
卫星简介
星链(Starlink)计划是由太空探索技术公司(SpaceX)提出的一个巨型低轨卫星互联网星座项目,计划在2019年至2024年间在太空搭建由约1.2万颗卫星组成的“星链”网络,其中1584颗将部署在地球上空550千米处的近地轨道,并从2020年开始工作。该卫星仍在工作。
2D轨道图
3D轨道图
轨道高度分析图
轨道倾角分析图
轨道综合分析图
查看轨道综合分析图
交会数据列表
事件ID 空间交会对象 最接近时刻(TCA) 交会距离 交会风险概率(CRP) 交会风险指数(CRI) 操作
CDM_260902-123604-867806-243024
2026-09-02T
12:36:26+0000
0.688 km
远距离
8.973016E-5 中风险 0.74
CDM_260902-132304-867806-243024
2026-09-02T
13:23:27+0000
0.877 km
远距离
4.215864E-5 中风险 0.67
CDM_260904-132804-835904-867821
2026-09-04T
13:28:26+0000
1.516 km
极远距离
4.875561E-6 低风险 0.49
CDM_260828-100604-867806-942421
2026-08-28T
10:06:13+0000
1.597 km
极远距离
4.286326E-6 低风险 0.48
CDM_260902-122604-867808-745625
2026-09-02T
12:26:22+0000
2.022 km
极远距离
2.278014E-6 低风险 0.42
CDM_260904-142604-867806-544321
2026-09-04T
14:26:23+0000
2.604 km
极远距离
1.466292E-6 低风险 0.38
CDM_260904-172304-835904-867821
2026-09-04T
17:23:17+0000
2.840 km
极远距离
1.127313E-6 低风险 0.36